[[{"header":{"parameterUnit":"m.s-1","parameterCategory":1,"la1":30.2991,"la2":30.254,"lo1":-89.0895,"lo2":-89.0444,"dy":0.0017,"dx":0.0017,"nx":28,"ny":28,"refTime":"2025-06-16T03:00:00:Z","depth":0,"parameterNumber":2,"parameterNumberName":"U-component_of_WINDS"},"data":[0,0,0,0,0,0,0,0,0,0,0,0,0,0,0,0,0,0,0,0,0,0,0,0,0,0,0,0,0,0,0,0,0,0,0,0,0,0,0,0,0,0,0,0,0,0,0,0,0,0,0,0,0,0,0,0,0,0,1.9576,1.9577,0,1.9633,1.9634,1.9635,1.9629,1.9628,1.9627,1.9626,1.9683,1.9685,1.9687,0,0,0,0,0,0,0,0,0,0,0,0,0,1.9458,1.9461,1.9576,1.9577,1.9578,1.9633,1.9634,1.9635,1.9629,1.9628,1.9627,1.9626,1.9682,1.9685,1.9688,0,0,0,0,0,0,0,0,0,0,0,0,0,1.9512,1.9461,1.9576,1.9582,1.9583,1.9633,1.9634,1.9635,1.9629,1.9628,1.9627,1.9625,1.9681,1.9685,1.9688,1.9736,0,0,1.9699,1.97,0,0,0,0,0,0,0,0,1.9509,1.9516,1.958,1.9581,1.9583,1.9623,1.9613,1.9669,1.963,1.9612,1.9626,1.9625,1.9664,1.9669,1.9682,1.9739,1.9741,1.9699,1.9701,1.9703,1.9704,0,0,0,0,0,0,0,1.9505,1.9514,1.9599,1.9581,1.9583,1.958,1.9586,1.9624,1.9644,1.9613,1.9613,1.962,1.9664,1.9679,1.9683,1.9742,1.9699,1.9702,1.9704,1.9706,1.9837,1.9838,0,0,0,0,0,0,1.9501,1.9511,1.9597,1.96,1.9542,1.9583,1.959,1.9611,1.9644,1.9648,1.9621,1.9619,1.9674,1.9679,1.9685,1.9741,1.9703,1.9706,1.9708,1.9835,1.9837,1.9839,0,0,0,0,0,0,1.9498,1.9508,1.9595,1.9556,1.9566,1.9587,1.961,1.9613,1.9628,1.965,1.9653,1.9632,1.9673,1.9681,1.9723,1.9743,1.9707,1.9711,1.9834,1.9836,1.9838,1.9855,0,0,0,0,0,0,1.9495,1.9508,1.9527,1.9556,1.9568,1.9632,1.9612,1.9615,1.9634,1.9632,1.9661,1.9665,1.9672,1.9718,1.9726,1.9747,1.9713,1.9832,1.9835,1.9837,1.9852,1.9857,1.9861,0,0,0,0,0,1.9491,1.953,1.9528,1.9539,1.9594,1.9634,1.9641,1.9649,1.9636,1.9654,1.9668,1.9664,1.974,1.9722,1.9732,1.9754,1.9831,1.9834,1.9837,1.985,1.9856,1.9861,0,0,0,0,0,0,1.9503,1.9534,1.9532,1.9582,1.9605,1.9633,1.9657,1.9655,1.9682,1.9679,1.9688,1.9694,1.9736,1.975,1.9729,1.98,1.9783,1.9788,1.979,1.9796,1.98,1.9795,1.9716,0,0,0,0,0,1.9511,1.9542,1.9568,1.9609,1.9621,1.9637,1.9655,1.9659,1.9683,1.9692,1.9709,1.9732,1.976,1.9779,1.9807,1.9854,1.9859,1.9874,1.9879,1.9882,1.9886,1.9909,1.9915,1.9849,1.9849,1.9849,0,0,1.9529,1.955,1.9569,1.9612,1.963,1.966,1.9645,1.9678,1.97,1.9697,1.9737,1.9751,1.9776,1.982,1.9841,1.9833,1.9905,1.9886,1.9889,1.9891,1.9913,1.9919,1.9924,1.9851,1.9851,1.985,0,0,1.9577,1.9597,1.9632,1.9651,1.9678,1.9688,1.9697,1.9724,1.9732,1.9773,1.977,1.9796,1.9846,1.9863,1.9878,1.993,1.9926,1.9939,1.9961,1.9983,1.9988,1.9993,2.0008,2.0014,1.9943,1.9943,1.9943,0,1.9595,1.9642,1.9651,1.9683,1.9701,1.97,1.9734,1.9751,1.9786,1.9798,1.9789,1.9849,1.9867,1.9913,1.9925,1.9939,1.9947,1.9935,1.9987,1.9992,1.9996,2.0011,2.0017,1.9944,1.9944,1.9944,1.9944,0,1.9661,1.9693,1.9719,1.9752,1.9773,1.9806,1.9818,1.9838,1.984,1.985,1.989,1.991,1.9941,1.9952,1.9955,1.9999,1.9992,1.9985,1.9968,2.0003,2.0017,2.0023,1.9946,1.9945,1.9945,1.9945,0,0,1.9719,1.9755,1.9764,1.9778,1.9807,1.9831,1.9864,1.9894,1.9909,1.9933,1.9958,1.9999,1.9992,2.0009,2.0013,2.0033,2.0069,2.0023,2.0024,2.0029,2.0115,2.0118,2.0125,2.0067,2.0068,2.0069,2.0112,0,1.9767,1.9825,1.9833,1.9883,1.9911,1.9909,1.9937,1.9957,1.9967,1.9991,2.0002,2.003,2.0019,2.0029,2.0049,2.006,2.0086,2.0058,2.0088,2.009,2.008,2.0133,2.0138,2.0177,2.0117,2.0118,2.0119,0,1.9832,1.9856,1.991,1.9932,1.9944,1.9969,1.9996,2.002,2.0041,2.0047,2.0065,2.0066,2.0097,2.008,2.0121,2.0102,2.0115,2.0122,2.0124,2.0126,2.0105,2.0134,2.019,2.0195,2.0128,2.0128,2.0127,0,1.9865,1.9912,1.9948,1.9961,1.9989,2.0006,2.0019,2.0039,2.0055,2.0078,2.0088,2.0115,2.0129,2.0148,2.0155,2.0142,2.0195,2.0179,2.0199,2.0199,2.0209,2.0208,2.0266,2.0221,2.0221,2.0221,2.0221,0,1.9917,1.9949,1.9963,1.9986,2.0021,2.0028,2.0062,2.0074,2.0091,2.0115,2.0115,2.0137,2.0146,2.0169,2.0175,2.0206,2.0213,2.0217,2.0218,2.0216,2.0215,2.0224,2.022,2.0223,2.0222,2.0222,2.0222,0,1.9959,1.9971,2.001,2.0033,2.004,2.0064,2.0083,2.0104,2.0113,2.0142,2.015,2.0164,2.019,2.02,2.0232,2.0236,2.0272,2.0272,2.0265,2.0264,2.0283,2.028,2.0347,2.0355,2.0306,2.0307,2.0307,0,1.999,2.0015,2.004,2.0056,2.0068,2.0094,2.0111,2.0119,2.0135,2.016,2.0177,2.0204,2.0225,2.0267,2.0279,2.0303,2.0302,2.0323,2.0305,2.0302,2.0299,2.0297,2.0298,2.0326,2.0327,2.0327,2.0328,0,2.0044,2.0048,2.0072,2.0097,2.0117,2.0137,2.0157,2.0169,2.018,2.0198,2.0225,2.0242,2.0274,2.0299,2.0323,2.0334,2.0332,2.0333,2.0339,2.0336,2.033,2.0331,2.0271,2.0331,2.0331,2.0331,2.0331,2.033,2.008,2.0101,2.0121,2.0147,2.0162,2.018,2.02,2.0211,2.0234,2.026,2.0264,2.0292,2.031,2.0342,2.0354,2.0375,2.0369,2.0378,2.0379,2.0381,2.0381,2.0328,2.038,2.038,2.038,2.038,2.038,0,2.0132,2.0144,2.0168,2.0195,2.0215,2.0211,2.0232,2.0248,2.0273,2.0291,2.0312,2.0341,2.0365,2.0378,2.0402,2.0416,2.0415,2.0421,2.0419,2.0421,2.0386,2.0378,2.0421,2.0421,2.0421,2.0421,2.0421,2.0421,2.0161,2.0194,2.02,2.024,2.0252,2.028,2.0291,2.0307,2.0321,2.0353,2.0373,2.0382,2.0397,2.0421,2.0442,2.0445,2.0453,2.046,2.0462,2.0429,2.0424,2.042,2.0412,2.0462,2.0462,2.0495,2.0495,2.0495]},{"header":{"parameterUnit":"m.s-1","parameterCategory":1,"la1":30.2991,"la2":30.254,"lo1":-89.0895,"lo2":-89.0444,"dy":0.0017,"dx":0.0017,"nx":28,"ny":28,"refTime":"2025-06-16T03:00:00:Z","depth":0,"parameterNumber":3,"parameterNumberName":"V-component_of_WINDS"},"data":[0,0,0,0,0,0,0,0,0,0,0,0,0,0,0,0,0,0,0,0,0,0,0,0,0,0,0,0,0,0,0,0,0,0,0,0,0,0,0,0,0,0,0,0,0,0,0,0,0,0,0,0,0,0,0,0,0,0,5.0232,5.0233,0,5.034,5.0341,5.0342,5.0305,5.0302,5.03,5.0298,5.0401,5.0406,5.0411,0,0,0,0,0,0,0,0,0,0,0,0,0,4.9985,4.999,5.0232,5.0233,5.0235,5.0339,5.0341,5.0342,5.0305,5.0302,5.0299,5.0297,5.04,5.0406,5.0412,0,0,0,0,0,0,0,0,0,0,0,0,0,5.0092,4.9992,5.0232,5.0229,5.023,5.0339,5.0341,5.0343,5.0306,5.0302,5.0299,5.0295,5.0398,5.0405,5.0412,5.0529,0,0,5.0435,5.0438,0,0,0,0,0,0,0,0,5.0086,5.0101,5.0228,5.0229,5.023,5.0305,5.0292,5.0405,5.0307,5.0277,5.0298,5.0294,5.0372,5.0381,5.0409,5.0534,5.0538,5.0436,5.044,5.0443,5.0446,0,0,0,0,0,0,0,5.0079,5.0097,5.0274,5.023,5.0231,5.0219,5.0231,5.0313,5.0342,5.0279,5.0276,5.029,5.0372,5.0402,5.0411,5.054,5.0436,5.0442,5.0447,5.045,5.0762,5.0766,0,0,0,0,0,0,5.0072,5.0091,5.0271,5.0277,5.0148,5.0227,5.0239,5.0285,5.0342,5.0347,5.0293,5.0288,5.0391,5.0402,5.0415,5.0553,5.0443,5.045,5.0455,5.0758,5.0763,5.0767,0,0,0,0,0,0,5.0067,5.0089,5.0266,5.0184,5.0205,5.0235,5.0286,5.0289,5.0319,5.0352,5.0356,5.0319,5.0389,5.0404,5.05,5.0556,5.0454,5.046,5.0754,5.076,5.0765,5.0831,0,0,0,0,0,0,5.006,5.0087,5.0134,5.0185,5.021,5.0354,5.0289,5.0293,5.0332,5.0327,5.0378,5.0383,5.0387,5.049,5.0508,5.0564,5.0466,5.0749,5.0756,5.0763,5.0824,5.0839,5.0851,0,0,0,0,0,5.0051,5.0148,5.0136,5.0158,5.027,5.0357,5.0371,5.0376,5.0337,5.0383,5.0404,5.0381,5.0547,5.05,5.052,5.0579,5.0745,5.0754,5.0763,5.0818,5.0836,5.0851,0,0,0,0,0,0,5.01,5.0154,5.0143,5.0259,5.0304,5.035,5.0409,5.0394,5.045,5.0442,5.0443,5.0455,5.0554,5.0576,5.0523,5.0693,5.064,5.0653,5.0675,5.0692,5.0705,5.0697,5.0472,0,0,0,0,0,5.0125,5.0194,5.0236,5.0334,5.0358,5.0379,5.0418,5.0417,5.0463,5.0481,5.0509,5.0553,5.0614,5.0654,5.0713,5.0827,5.0836,5.0878,5.0891,5.0902,5.0913,5.0972,5.099,5.0795,5.0795,5.0795,0,0,5.0176,5.0214,5.0257,5.0345,5.038,5.0448,5.0396,5.0471,5.052,5.0492,5.0585,5.0607,5.0654,5.076,5.0807,5.0781,5.0968,5.0913,5.0921,5.0926,5.0982,5.1001,5.1017,5.0801,5.08,5.0799,0,0,5.0304,5.0341,5.0425,5.0461,5.0515,5.0528,5.0549,5.0598,5.0611,5.0705,5.0684,5.0742,5.0849,5.0883,5.0914,5.1052,5.1032,5.1071,5.114,5.1197,5.1213,5.1226,5.1273,5.129,5.1082,5.1082,5.1082,0,5.036,5.0465,5.047,5.0547,5.0585,5.0563,5.0647,5.0681,5.075,5.0775,5.0746,5.0878,5.0908,5.102,5.1053,5.108,5.1101,5.1065,5.1211,5.1224,5.1237,5.1281,5.1299,5.1086,5.1086,5.1085,5.1085,0,5.0529,5.0602,5.0664,5.0733,5.0777,5.0857,5.0871,5.0915,5.0911,5.0926,5.1019,5.1056,5.112,5.1146,5.1142,5.1257,5.1238,5.121,5.1156,5.126,5.1301,5.1319,5.1092,5.1091,5.109,5.1088,0,0,5.0692,5.0762,5.0784,5.0814,5.0871,5.0926,5.1003,5.1067,5.1104,5.1152,5.1214,5.1304,5.1277,5.1313,5.1312,5.1362,5.1466,5.1327,5.1328,5.135,5.1591,5.1611,5.1631,5.1453,5.1457,5.1459,5.1586,0,5.0823,5.0961,5.0967,5.1092,5.1157,5.1136,5.1203,5.1243,5.1259,5.1314,5.133,5.1393,5.1354,5.1375,5.1425,5.1443,5.1514,5.1434,5.1508,5.1511,5.1496,5.1653,5.1676,5.1794,5.1603,5.1605,5.1607,0,5.0995,5.1049,5.1181,5.1226,5.1253,5.1314,5.1371,5.1426,5.1469,5.1477,5.1516,5.1507,5.1582,5.1526,5.1628,5.1573,5.1604,5.1617,5.1621,5.1628,5.1565,5.1662,5.1832,5.1849,5.1634,5.1632,5.163,0,5.1097,5.1203,5.1295,5.1321,5.1377,5.1419,5.1444,5.1484,5.1522,5.1571,5.1595,5.1652,5.1683,5.1727,5.1732,5.1691,5.1833,5.1778,5.1839,5.1839,5.1869,5.1867,5.2045,5.1891,5.1891,5.1891,5.189,0,5.1242,5.1323,5.1342,5.1398,5.1487,5.1491,5.1577,5.1598,5.1634,5.1691,5.1676,5.173,5.1735,5.1789,5.1793,5.1875,5.1889,5.1895,5.1895,5.1896,5.1895,5.1915,5.1907,5.1895,5.1894,5.1893,5.1893,0,5.1372,5.1388,5.1486,5.1531,5.1543,5.1607,5.1643,5.1695,5.1709,5.1781,5.1798,5.1819,5.1882,5.1892,5.1965,5.1968,5.2066,5.2058,5.2052,5.205,5.2109,5.2103,5.2305,5.2331,5.2162,5.2164,5.2165,0,5.1463,5.1524,5.1575,5.1614,5.1641,5.1703,5.1741,5.1746,5.1786,5.1839,5.1884,5.1946,5.1996,5.2096,5.2116,5.2171,5.2163,5.223,5.2171,5.2169,5.2162,5.2158,5.2162,5.2241,5.2243,5.2245,5.2246,0,5.1621,5.1626,5.1683,5.1743,5.1789,5.1836,5.1879,5.1911,5.1921,5.1966,5.2031,5.207,5.2145,5.2205,5.2259,5.2281,5.2264,5.2264,5.2281,5.2282,5.2275,5.2277,5.2081,5.2259,5.2258,5.2257,5.2256,5.2256,5.1733,5.1786,5.183,5.1893,5.1926,5.1967,5.2018,5.2038,5.2093,5.2156,5.2155,5.2225,5.2264,5.2335,5.2361,5.2414,5.2392,5.2416,5.2422,5.2428,5.2433,5.2268,5.2424,5.2423,5.2423,5.2423,5.2422,0,5.1889,5.1916,5.1974,5.2036,5.2085,5.2067,5.2114,5.2155,5.2218,5.2257,5.2306,5.2379,5.2437,5.2461,5.2516,5.2554,5.2547,5.2568,5.2565,5.2569,5.245,5.243,5.2572,5.2572,5.2572,5.2572,5.2572,5.2572,5.1976,5.2064,5.2073,5.2176,5.2201,5.2272,5.23,5.2336,5.2367,5.245,5.2498,5.2514,5.2546,5.2603,5.2654,5.266,5.268,5.2704,5.2705,5.2593,5.2578,5.2564,5.2544,5.2709,5.2709,5.282,5.2821,5.2822]}]]